Wind_Speed
18 18 18 17 18 18 15 16 16 15 13 11 11 9 8 7 5 4 1 0 2 2 2 2 5 6 6 5 2 4 3 2 4 5 5 7 7 8 10 13 19 23 24 25 31
19 18 18 18 18 18 17 17 17 15 14 14 12 11 10 8 8 6 4 2 1 2 2 0 5 6 5 4 4 6 3 3 2 2 0 4 7 8 13 18 20 25 28 30 26
22 21 19 19 18 19 19 19 18 17 16 17 15 14 13 12 11 9 8 5 3 3 3 2 4 6 4 3 2 2 3 3 10 16 10 8 8 11 9 14 19 21 26 31 34
25 23 22 21 20 18 18 18 19 18 18 18 16 15 14 13 14 13 11 9 7 5 5 3 3 5 3 2 2 3 3 5 16 16 13 9 8 12 14 15 15 19 25 30 36
26 25 23 22 20 20 20 20 19 18 18 17 16 16 15 14 13 13 12 12 10 9 8 4 4 3 2 2 3 1 2 4 9 11 10 12 10 13 14 16 17 19 24 25 31
29 27 26 24 23 21 22 21 20 20 19 18 17 17 17 15 14 13 13 13 12 12 10 7 5 4 4 4 4 4 5 5 5 9 12 14 14 7 13 15 15 19 21 24 29
31 30 28 26 25 24 23 21 21 21 19 18 18 18 18 17 15 14 13 13 14 14 12 9 6 5 5 6 5 6 5 7 6 8 11 17 17 4 9 14 15 20 19 22 26
33 32 30 28 26 26 24 23 22 21 20 19 19 18 18 18 16 15 14 13 14 15 14 11 9 8 7 7 7 8 7 8 7 9 14 20 12 4 4 9 14 18 17 21 25
36 33 31 29 27 26 25 25 23 22 21 19 18 18 17 20 17 15 15 14 14 15 14 12 11 10 10 10 9 8 8 8 8 10 14 20 19 15 8 7 12 14 18 21 24
35 36 32 29 27 26 25 25 23 22 22 20 18 18 18 17 15 16 14 15 14 14 14 12 11 11 13 13 11 9 8 5 10 12 16 20 21 20 11 8 10 15 19 20 22
33 34 35 31 27 26 24 24 23 21 21 22 20 19 17 17 18 18 14 14 14 14 14 11 11 15 12 13 13 11 12 9 10 14 15 19 22 22 17 13 14 17 20 22 25
32 33 35 33 29 25 24 24 23 23 22 21 20 18 18 19 18 15 17 16 16 16 15 12 15 14 10 11 11 11 12 13 13 17 18 17 19 21 19 17 18 17 20 21 26
31 32 33 34 32 27 25 23 23 23 22 22 20 19 18 18 19 18 18 18 17 17 16 15 17 17 15 13 12 13 14 16 15 20 21 18 15 17 19 19 21 22 24 24 19
27 28 31 31 30 30 29 28 25 26 25 24 24 23 22 21 21 22 21 20 19 19 18 16 18 18 17 16 15 15 19 19 20 20 22 18 15 17 19 19 19 20 20 19 15
28 27 29 28 27 29 27 28 28 27 26 25 26 23 24 21 21 23 25 23 23 24 22 21 22 21 18 18 17 16 18 20 22 22 21 13 19 21 16 16 15 11 13 16 17
32 32 30 31 31 27 28 31 30 29 29 26 26 24 22 22 21 22 22 24 26 26 25 24 24 23 22 22 22 19 20 22 24 23 21 16 20 20 15 16 17 14 18 20 15
34 37 36 34 32 31 32 34 33 32 29 29 24 23 23 25 25 27 27 27 27 25 25 28 27 28 29 27 25 23 20 25 25 23 22 20 21 21 17 15 17 16 17 18 18
36 36 42 40 33 34 35 34 35 31 30 28 26 25 26 27 27 29 30 29 28 28 28 28 26 27 28 27 25 25 28 30 25 24 23 22 23 22 18 16 17 16 18 18 21
35 36 36 40 38 39 36 35 33 32 32 32 30 28 29 30 30 32 30 29 28 28 29 30 30 24 27 27 24 27 26 23 26 25 23 19 21 20 20 16 17 11 9 12 17
34 37 38 39 40 42 40 37 36 36 35 34 33 32 32 33 32 31 30 28 28 29 31 30 30 24 27 26 28 27 27 23 22 20 18 16 14 17 17 15 12 8 14 13 15
36 35 37 39 41 43 40 38 40 38 37 36 36 35 33 33 34 32 30 28 29 28 30 32 29 23 25 26 26 30 29 27 24 19 20 19 11 12 16 18 13 13 13 18 22
36 37 37 38 40 40 38 39 38 39 38 37 35 33 32 32 32 32 31 29 28 26 27 28 29 24 24 28 28 31 28 23 23 21 20 17 12 14 14 16 17 17 16 20 18
35 37 39 40 39 38 39 39 38 38 38 37 35 35 34 33 32 32 29 27 24 23 28 27 27 21 27 30 29 32 30 24 22 22 21 20 12 11 9 12 14 13 15 20 22
35 36 38 40 40 41 40 39 38 39 38 38 36 36 36 34 33 32 30 28 26 24 25 29 28 25 24 27 30 30 27 25 24 25 24 22 15 11 10 9 7 13 14 18 21
37 37 37 39 40 40 39 41 41 41 41 41 39 39 37 35 35 32 34 32 29 27 26 27 24 25 22 24 33 33 31 26 25 24 23 23 19 18 17 10 14 9 12 15 21
39 38 39 38 39 40 41 41 39 39 40 41 41 40 40 39 38 35 33 36 34 32 31 31 34 31 27 21 29 33 33 31 31 29 28 28 28 21 20 15 9 12 14 17 21
39 40 40 40 41 40 40 41 40 40 40 40 39 38 41 42 40 37 35 35 37 41 40 40 39 37 31 23 21 28 29 32 32 30 36 36 34 19 16 14 14 13 15 18 19
Wind_Direction
205 203 205 205 205 204 199 196 194 191 189 188 188 194 197 199 202 211 176 349 356 20 342 18 92 132 139 138 106 167 149 161 165 124 107 108 81 53 44 42 34 20 15 16 14
215 211 210 206 205 207 207 206 205 202 203 207 205 209 218 219 223 223 227 242 270 304 308 160 119 155 146 128 113 153 171 57 55 28 241 50 43 51 47 30 21 18 18 9 5
218 218 215 212 211 206 207 212 210 211 211 218 220 219 226 230 232 229 232 241 248 258 260 216 144 166 156 142 143 163 143 326 13 350 352 18 24 8 13 16 38 20 9 5 2
218 220 219 214 216 214 212 210 213 214 215 219 223 226 229 232 237 235 231 233 234 230 239 227 186 177 200 125 139 220 102 339 353 355 344 3 1 16 9 6 19 12 14 9 357
221 221 223 221 216 218 219 218 216 215 216 218 220 226 231 232 239 243 238 234 227 224 230 232 231 217 243 167 245 46 128 14 353 340 338 336 354 338 358 5 11 17 16 7 357
225 225 225 226 223 220 221 220 222 222 220 220 223 225 231 232 234 239 242 236 230 226 223 223 223 222 224 220 259 291 312 345 325 320 320 325 331 8 6 358 358 15 10 4 357
226 227 228 229 228 226 227 224 224 225 226 225 226 228 232 235 233 233 237 237 230 227 220 222 223 228 220 232 261 286 301 288 307 315 310 320 333 303 342 341 355 15 6 6 2
228 228 230 230 231 231 232 230 228 228 228 228 227 228 231 234 233 236 235 235 230 227 218 217 225 230 243 252 247 263 265 275 288 299 317 322 334 353 351 328 8 8 2 4 359
230 230 231 233 232 232 230 230 231 228 228 227 227 228 227 235 235 236 236 234 230 225 222 221 229 239 245 254 251 253 254 270 288 285 299 309 306 308 327 346 355 347 345 359 354
230 230 231 234 234 233 230 228 227 226 224 225 228 227 228 233 228 232 231 231 228 222 226 229 234 239 239 245 245 250 263 281 280 285 301 296 300 305 312 318 333 330 339 342 350
229 230 229 231 232 230 230 227 226 221 221 222 222 223 221 221 221 224 225 232 229 229 229 224 221 230 231 242 252 254 260 263 260 272 283 292 299 308 317 327 321 315 330 342 343
224 227 226 227 228 226 227 227 227 221 220 218 219 222 220 223 226 221 219 220 227 228 230 225 232 241 239 242 253 259 264 265 259 270 283 294 302 310 316 317 316 303 321 332 333
220 222 222 223 226 222 223 230 228 224 218 216 214 219 212 220 230 228 224 226 227 234 238 237 243 247 241 234 240 252 263 262 260 270 283 294 302 307 308 315 310 308 314 316 318
218 216 217 217 222 227 223 231 235 230 222 222 217 221 224 220 223 232 234 232 234 235 238 240 243 243 244 247 249 254 259 269 270 276 283 300 294 292 300 303 301 300 314 314 309
214 215 215 211 216 226 229 228 234 230 226 221 227 222 227 228 230 237 237 235 237 238 240 243 249 249 246 250 251 253 269 271 277 284 289 293 287 292 309 322 318 321 320 311 305
224 223 223 225 228 228 233 229 229 229 228 225 224 228 229 231 231 237 240 242 245 246 246 249 251 253 255 257 259 255 262 268 271 277 281 276 283 291 309 308 314 308 308 296 293
231 228 228 231 226 229 229 229 228 224 222 228 226 230 237 240 241 241 242 242 246 250 249 247 250 250 251 254 256 257 253 258 262 269 276 275 276 284 302 299 297 298 302 313 309
233 232 233 230 231 230 230 228 222 221 225 232 236 236 242 240 241 247 248 248 249 253 256 257 252 249 251 249 247 247 247 253 259 258 267 277 284 288 295 289 288 290 309 333 7
231 231 231 225 233 230 231 229 228 228 229 235 236 237 240 244 247 250 250 253 251 251 254 255 256 256 251 242 236 239 244 248 254 259 263 267 274 285 286 298 304 312 5 15 12
232 229 229 230 232 234 231 230 232 233 234 237 240 241 239 243 247 249 251 254 256 252 251 252 253 251 247 238 232 229 233 236 249 260 259 263 275 279 283 301 308 304 338 355 353
236 233 228 228 230 230 233 233 236 237 238 239 243 244 242 240 241 242 246 248 255 260 260 254 253 250 242 231 224 228 238 240 245 254 265 267 279 305 292 289 297 295 325 338 335
235 237 234 232 231 232 233 235 236 237 237 237 238 242 241 240 239 239 240 242 248 257 253 245 248 242 241 230 222 225 238 244 247 253 256 269 287 318 300 282 300 316 329 330 325
234 234 234 234 234 233 232 231 232 233 233 234 234 237 240 241 238 234 234 235 242 247 237 237 241 232 232 229 220 223 238 247 253 250 262 271 293 296 277 289 304 327 318 320 326
234 234 234 234 234 233 235 235 234 234 236 234 234 237 239 241 242 237 234 235 237 243 239 235 241 237 227 226 225 230 244 254 256 250 260 269 287 291 298 303 319 314 311 326 328
235 235 233 232 232 232 231 233 235 237 237 239 237 240 241 241 243 239 236 232 235 243 247 254 251 238 232 230 226 229 233 244 259 263 266 269 278 293 288 286 296 300 316 328 331
233 233 234 233 232 229 228 229 228 232 236 238 238 237 240 239 241 240 236 238 235 241 246 253 262 259 251 240 228 233 234 238 250 260 261 268 278 292 283 263 277 288 302 313 332
234 233 232 231 232 232 230 229 227 227 231 233 235 236 237 239 239 239 237 237 236 237 240 249 257 257 261 254 246 240 242 241 248 259 264 268 273 287 266 254 259 281 299 313 331
Height
5868 5870 5873 5875 5878 5880 5882 5884 5887 5888 5891 5893 5895 5897 5898 5900 5902 5904 5904 5906 5906 5906 5907 5908 5910 5910 5910 5911 5912 5911 5911 5911 5913 5914 5914 5913 5912 5910 5910 5909 5908 5907 5905 5904 5904
5866 5869 5871 5873 5876 5879 5881 5884 5886 5887 5889 5892 5894 5896 5898 5900 5901 5903 5904 5905 5906 5906 5908 5909 5910 5911 5911 5912 5912 5912 5911 5914 5915 5915 5915 5914 5913 5911 5910 5908 5907 5905 5904 5903 5903
5864 5867 5869 5871 5874 5877 5880 5882 5884 5886 5888 5891 5894 5895 5897 5899 5900 5902 5903 5904 5905 5907 5907 5909 5910 5910 5912 5912 5913 5913 5913 5916 5918 5917 5917 5916 5915 5913 5910 5909 5907 5906 5905 5904 5903
5861 5865 5867 5869 5872 5874 5877 5880 5882 5885 5887 5890 5892 5894 5895 5897 5900 5900 5902 5903 5905 5906 5907 5908 5910 5911 5911 5913 5913 5915 5916 5917 5916 5916 5916 5916 5915 5914 5911 5910 5907 5906 5905 5903 5901
5858 5861 5864 5866 5869 5872 5875 5878 5880 5883 5885 5888 5890 5892 5894 5896 5897 5898 5900 5901 5903 5905 5906 5908 5909 5911 5912 5913 5913 5914 5916 5917 5917 5915 5915 5914 5914 5913 5912 5910 5907 5906 5906 5904 5901
5855 5858 5861 5863 5866 5869 5873 5875 5878 5881 5883 5885 5888 5889 5892 5894 5895 5896 5898 5900 5902 5903 5905 5907 5909 5911 5912 5912 5912 5913 5915 5915 5916 5915 5914 5912 5911 5912 5912 5910 5909 5906 5906 5905 5902
5851 5854 5858 5861 5863 5866 5870 5872 5875 5877 5880 5882 5885 5887 5889 5892 5892 5894 5896 5898 5900 5902 5904 5906 5908 5910 5912 5912 5912 5913 5914 5914 5915 5914 5912 5911 5911 5910 5910 5909 5907 5906 5906 5904 5904
5845 5850 5853 5857 5859 5862 5866 5868 5871 5874 5877 5880 5882 5884 5887 5888 5890 5892 5894 5896 5898 5899 5902 5905 5906 5908 5909 5910 5911 5911 5913 5913 5913 5912 5910 5909 5909 5908 5909 5908 5906 5906 5905 5904 5903
5840 5844 5848 5852 5854 5858 5862 5865 5867 5870 5874 5877 5880 5881 5884 5885 5888 5890 5892 5893 5895 5898 5900 5903 5905 5906 5907 5908 5909 5909 5911 5912 5912 5910 5909 5908 5908 5907 5908 5906 5906 5904 5904 5902 5900
5833 5838 5843 5847 5850 5854 5857 5861 5864 5867 5871 5874 5876 5880 5881 5884 5886 5887 5890 5891 5894 5896 5899 5901 5903 5904 5905 5905 5906 5907 5909 5911 5910 5909 5908 5907 5907 5906 5906 5905 5904 5903 5902 5900 5898
5827 5832 5837 5842 5846 5850 5854 5857 5862 5864 5866 5870 5873 5875 5878 5880 5881 5885 5887 5890 5892 5894 5896 5899 5901 5900 5903 5904 5904 5906 5908 5909 5908 5907 5907 5905 5904 5904 5904 5903 5902 5900 5899 5898 5896
5821 5825 5830 5836 5840 5845 5849 5852 5855 5860 5863 5866 5869 5872 5875 5877 5879 5882 5885 5887 5889 5891 5894 5898 5897 5899 5901 5901 5902 5903 5905 5907 5906 5904 5905 5904 5903 5901 5900 5899 5899 5898 5897 5896 5894
5815 5819 5824 5829 5834 5840 5843 5847 5851 5855 5859 5863 5866 5868 5872 5875 5876 5878 5881 5883 5885 5888 5890 5893 5894 5896 5898 5899 5900 5900 5901 5901 5903 5900 5900 5902 5901 5899 5898 5897 5896 5895 5894 5893 5892
5810 5814 5818 5823 5830 5833 5837 5841 5846 5851 5855 5859 5862 5865 5869 5871 5873 5874 5877 5880 5883 5884 5887 5890 5890 5891 5894 5896 5897 5898 5896 5897 5898 5898 5898 5898 5898 5897 5896 5895 5893 5891 5890 5889 5889
5806 5810 5814 5819 5823 5827 5832 5836 5841 5846 5850 5855 5857 5860 5862 5867 5870 5870 5872 5876 5878 5879 5884 5886 5886 5889 5892 5892 5894 5894 5894 5895 5894 5895 5896 5896 5894 5893 5895 5892 5889 5888 5887 5885 5885
5801 5805 5809 5813 5818 5822 5826 5831 5836 5841 5843 5848 5851 5854 5858 5861 5864 5866 5869 5871 5873 5876 5879 5881 5882 5885 5888 5888 5889 5891 5891 5891 5891 5892 5892 5892 5891 5891 5892 5890 5889 5887 5884 5879 5880
5794 5799 5802 5807 5813 5816 5820 5825 5830 5833 5840 5843 5847 5850 5854 5856 5859 5860 5863 5866 5868 5871 5873 5874 5877 5879 5881 5883 5884 5886 5887 5886 5887 5888 5889 5888 5887 5887 5888 5887 5887 5886 5881 5877 5877
5787 5791 5794 5800 5805 5809 5814 5819 5823 5829 5833 5837 5842 5846 5848 5850 5853 5855 5857 5861 5864 5866 5866 5868 5872 5872 5874 5877 5878 5879 5880 5881 5882 5884 5885 5884 5883 5884 5884 5884 5883 5882 5879 5879 5877
5779 5783 5786 5794 5798 5801 5807 5812 5819 5823 5827 5831 5835 5839 5841 5843 5847 5849 5852 5855 5857 5859 5861 5861 5863 5865 5867 5869 5873 5873 5875 5878 5877 5879 5880 5880 5880 5880 5879 5880 5879 5879 5879 5877 5875
5770 5775 5780 5786 5789 5793 5799 5807 5810 5815 5819 5823 5827 5831 5834 5837 5840 5842 5845 5849 5850 5851 5852 5855 5858 5860 5860 5863 5866 5868 5871 5873 5873 5876 5876 5876 5876 5876 5876 5876 5876 5876 5877 5875 5872
5762 5767 5772 5776 5781 5785 5792 5798 5802 5807 5812 5816 5819 5822 5826 5829 5832 5836 5840 5844 5843 5845 5848 5850 5853 5857 5857 5858 5861 5863 5866 5868 5870 5871 5872 5872 5874 5873 5872 5871 5873 5873 5873 5872 5868
5753 5758 5763 5767 5773 5779 5785 5789 5794 5799 5803 5807 5811 5814 5817 5821 5825 5829 5833 5837 5839 5841 5842 5845 5846 5851 5854 5853 5856 5858 5860 5863 5865 5869 5868 5868 5871 5870 5869 5868 5869 5869 5870 5869 5865
5745 5749 5754 5759 5764 5770 5775 5779 5785 5789 5793 5799 5804 5806 5809 5813 5818 5821 5826 5830 5833 5836 5839 5840 5841 5846 5848 5849 5851 5853 5855 5860 5862 5864 5864 5865 5868 5866 5866 5866 5865 5866 5866 5864 5863
5737 5741 5746 5750 5756 5762 5768 5773 5777 5781 5785 5790 5795 5798 5802 5807 5811 5815 5820 5823 5827 5830 5832 5834 5837 5842 5846 5849 5849 5851 5854 5856 5857 5859 5861 5862 5863 5864 5864 5863 5863 5863 5862 5862 5860
5727 5732 5737 5741 5747 5753 5759 5763 5768 5773 5777 5782 5788 5790 5796 5801 5803 5809 5814 5817 5821 5822 5825 5827 5830 5835 5840 5843 5844 5845 5848 5851 5852 5853 5855 5857 5860 5862 5863 5862 5860 5859 5859 5859 5856
5718 5723 5727 5733 5738 5743 5748 5752 5759 5764 5768 5773 5779 5784 5788 5793 5796 5802 5807 5811 5815 5818 5820 5822 5824 5827 5832 5838 5840 5841 5843 5846 5847 5849 5851 5852 5855 5858 5858 5859 5857 5856 5857 5857 5853
5707 5712 5717 5723 5728 5733 5739 5744 5750 5755 5758 5763 5769 5775 5779 5783 5789 5794 5799 5804 5808 5811 5815 5817 5819 5822 5825 5830 5833 5836 5839 5840 5842 5843 5845 5847 5850 5854 5853 5855 5854 5853 5853 5852 5850